Regional Weather Roundup
Issued by NWS Kansas City/Pleasant Hill, MO

Home | Current Version | Previous Version | Text Only | Print | Product List | Glossary On
Versions: 1 2 3 4 5 6 7 8 9 10 11 12 13 14 15 16 17 18 19 20 21 22 23 24 25 26 27 28 29 30 31 32 33 34 35 36 37 38 39 40 41 42 43 44 45 46 47 48 49 50
000
ASUS43 KEAX 212211
RWREAX

WEATHER ROUNDUP FOR EASTERN KANSAS AND NORTHWEST MISSOURI
NATIONAL WEATHER SERVICE KANSAS CITY/PLEASANT HILL MO
500 PM CDT SUN SEP 21 2014

KSZ040-057-103>105-MOZ028-029-037-043-212300-
...KANSAS CITY METROPOLITAN AREA...

CITY           SKY/WX    TMP DP  RH WIND       PRES   REMARKS
K.C. INTL      MOSUNNY   74  47  38 N15G23    30.15F
K.C. DOWNTOWN  SUNNY     76  46  34 N14       30.14S
LEES SUMMIT    SUNNY     75  47  36 N14       30.15S
OLATHE - IXD   SUNNY     74  49  41 N15       30.16S
OLATHE - OJC   SUNNY     76  46  34 N16       30.14F
LAWRENCE       SUNNY     77  45  32 N13       30.16S

$$

MOZ001>008-011>017-020>025-030>033-038>040-044>046-053-054-212300-
...NORTHERN AND CENTRAL MISSOURI...

CITY           SKY/WX    TMP DP  RH WIND       PRES   REMARKS
ST. JOSEPH     SUNNY     74  48  39 N16       30.16S
MOSBY          CLEAR     73  46  38 N15       30.15R
WHITEMAN AFB   SUNNY     74  48  39 NW13      30.12S
CLINTON        SUNNY     75  54  46 N10       30.13S HAZE
SEDALIA        SUNNY     76  47  35 N13G21    30.12S
WARSAW         NOT AVBL
MARSHALL       MOSUNNY   77  50  38 N10G18    30.13S
CHILLICOTHE      N/A     74  49  41 VRB6      30.14S
MOBERLY        MOSUNNY   73  45  35 NW13G21   30.12S
KIRKSVILLE     PTSUNNY   69  49  48 NW10      30.13S

$$

MOZ041-047>049-056>058-063>065-088>090-097-212300-
...EASTERN AND SOUTHERN MISSOURI...

CITY           SKY/WX    TMP DP  RH WIND       PRES   REMARKS
ST. LOUIS INTL MOSUNNY   75  49  39 NW16G22   30.05R
SPIRIT OF STL  MOSUNNY   75  49  39 NW14G22   30.05R
COLUMBIA       MOSUNNY   74  50  42 N17       30.10R
JEFFERSON CITY SUNNY     76  46  34 N14G22    30.09R
MEXICO         MOSUNNY   75  54  46 N9G21     30.10R
ROLLA          SUNNY     73  46  38 NW14      30.07S
LEBANON        SUNNY     75  46  35 NW8       30.11S
OSAGE BEACH    SUNNY     75  46  35 N6G16     30.10R
SPRINGFIELD    SUNNY     76  48  37 N15       30.12R
BRANSON        MOSUNNY   81  45  28 N17G25    30.11S
NEVADA         SUNNY     75  48  38 N15       30.14S
JOPLIN         SUNNY     77  47  34 NW12      30.13S
WEST PLAINS    SUNNY     79  46  31 NW12      30.08S

$$

IAZ060-094-KSZ022-034>040-054-083-096-NEZ052-066-093-212300-
...KANSAS...SOUTHEAST NEBRASKA AND IOWA...

CITY           SKY/WX    TMP DP  RH WIND       PRES   REMARKS
TOPEKA         SUNNY     77  47  34 NW13      30.17S
MANHATTAN      SUNNY     78  42  27 N12G20    30.18S
EMPORIA        SUNNY     77  45  32 N13G22    30.16F
CHANUTE        SUNNY     79  50  36 N14G22    30.14S
WICHITA        MOSUNNY   82  45  27 NE12G21   30.17F
OMAHA          MOSUNNY   72  46  39 N17       30.20S
LINCOLN        LGT RAIN  74  45  35 N16G23    30.22S
FALLS CITY     SUNNY     74  48  39 N13G20    30.17S
LAMONI         PTSUNNY   69  49  48 N15G24    30.16R
DES MOINES     MOSUNNY   69  47  45 N13       30.15R

$$



USA.gov is the U.S. government's official web portal to all federal, state and local government web resources and services.